Year,Month,Day,Hour,Minute,Value (Times are PST for temperature in C)
2014,07,16,00,00,20.80
2014,07,16,00,01,20.80
2014,07,16,00,02,20.70
2014,07,16,00,03,20.70
2014,07,16,00,04,20.60
2014,07,16,00,05,20.60
2014,07,16,00,06,20.50
2014,07,16,00,07,20.40
2014,07,16,00,08,20.30
2014,07,16,00,09,20.30
2014,07,16,00,10,20.20
2014,07,16,00,11,20.10
2014,07,16,00,12,20.00
2014,07,16,00,13,19.90
2014,07,16,00,14,19.80
2014,07,16,00,15,19.70
2014,07,16,00,16,19.60
2014,07,16,00,17,19.60
2014,07,16,00,18,19.50
2014,07,16,00,19,19.50
2014,07,16,00,20,19.50
2014,07,16,00,21,19.60
2014,07,16,00,22,19.60
2014,07,16,00,23,19.60
2014,07,16,00,24,19.70
2014,07,16,00,25,19.80
2014,07,16,00,26,20.00
2014,07,16,00,27,20.00
2014,07,16,00,28,20.10
2014,07,16,00,29,20.20
2014,07,16,00,30,20.30
2014,07,16,00,31,20.30
2014,07,16,00,32,20.40
2014,07,16,00,33,20.40
2014,07,16,00,34,20.40
2014,07,16,00,35,20.40
2014,07,16,00,36,20.40
2014,07,16,00,37,20.40
2014,07,16,00,38,20.40
2014,07,16,00,39,20.40
2014,07,16,00,40,20.40
2014,07,16,00,41,20.40
2014,07,16,00,42,20.40
2014,07,16,00,43,20.40
2014,07,16,00,44,20.40
2014,07,16,00,45,20.40
2014,07,16,00,46,20.40
2014,07,16,00,47,20.40
2014,07,16,00,48,20.30
2014,07,16,00,49,20.30
2014,07,16,00,50,20.30
2014,07,16,00,51,20.30
2014,07,16,00,52,20.30
2014,07,16,00,53,20.30
2014,07,16,00,54,20.30
2014,07,16,00,55,20.20
2014,07,16,00,56,20.20
2014,07,16,00,57,20.20
2014,07,16,00,58,20.20
2014,07,16,00,59,20.20
2014,07,16,01,00,20.20
2014,07,16,01,01,20.20
2014,07,16,01,02,20.20
2014,07,16,01,03,20.20
2014,07,16,01,04,20.20
2014,07,16,01,05,20.20
2014,07,16,01,06,20.20
2014,07,16,01,07,20.20
2014,07,16,01,08,20.30
2014,07,16,01,09,20.30
2014,07,16,01,10,20.20
2014,07,16,01,11,20.20
2014,07,16,01,12,20.20
2014,07,16,01,13,20.20
2014,07,16,01,14,20.20
2014,07,16,01,15,20.20
2014,07,16,01,16,20.20
2014,07,16,01,17,20.20
2014,07,16,01,18,20.20
2014,07,16,01,19,20.10
2014,07,16,01,20,20.10
2014,07,16,01,21,20.10
2014,07,16,01,22,20.10
2014,07,16,01,23,20.10
2014,07,16,01,24,20.00
2014,07,16,01,25,20.00
2014,07,16,01,26,19.90
2014,07,16,01,27,19.90
2014,07,16,01,28,19.90
2014,07,16,01,29,19.80
2014,07,16,01,30,19.80
2014,07,16,01,31,19.80
2014,07,16,01,32,19.80
2014,07,16,01,33,19.80
2014,07,16,01,34,19.80
2014,07,16,01,35,19.70
2014,07,16,01,36,19.70
2014,07,16,01,37,19.70
2014,07,16,01,38,19.70
2014,07,16,01,39,19.70
2014,07,16,01,40,19.70
2014,07,16,01,41,19.70
2014,07,16,01,42,19.60
2014,07,16,01,43,19.60
2014,07,16,01,44,19.60
2014,07,16,01,45,19.60
2014,07,16,01,46,19.60
2014,07,16,01,47,19.60
2014,07,16,01,48,19.60
2014,07,16,01,49,19.60
2014,07,16,01,50,19.60
2014,07,16,01,51,19.60
2014,07,16,01,52,19.60
2014,07,16,01,53,19.50
2014,07,16,01,54,19.50
2014,07,16,01,55,19.50
2014,07,16,01,56,19.50
2014,07,16,01,57,19.40
2014,07,16,01,58,19.40
2014,07,16,01,59,19.40
2014,07,16,02,00,19.40
2014,07,16,02,01,19.40
2014,07,16,02,02,19.40
2014,07,16,02,03,19.30
2014,07,16,02,04,19.30
2014,07,16,02,05,19.30
2014,07,16,02,06,19.30
2014,07,16,02,07,19.30
2014,07,16,02,08,19.30
2014,07,16,02,09,19.30
2014,07,16,02,10,19.20
2014,07,16,02,11,19.20
2014,07,16,02,12,19.20
2014,07,16,02,13,19.20
2014,07,16,02,14,19.20
2014,07,16,02,15,19.20
2014,07,16,02,16,19.20
2014,07,16,02,17,19.20
2014,07,16,02,18,19.20
2014,07,16,02,19,19.20
2014,07,16,02,20,19.10
2014,07,16,02,21,19.10
2014,07,16,02,22,19.10
2014,07,16,02,23,19.10
2014,07,16,02,24,19.10
2014,07,16,02,25,19.10
2014,07,16,02,26,19.10
2014,07,16,02,27,19.10
2014,07,16,02,28,19.10
2014,07,16,02,29,19.10
2014,07,16,02,30,19.10
2014,07,16,02,31,19.10
2014,07,16,02,32,19.00
2014,07,16,02,33,19.00
2014,07,16,02,34,19.00
2014,07,16,02,35,19.00
2014,07,16,02,36,19.00
2014,07,16,02,37,18.90
2014,07,16,02,38,18.90
2014,07,16,02,39,18.90
2014,07,16,02,40,18.90
2014,07,16,02,41,18.90
2014,07,16,02,42,18.90
2014,07,16,02,43,18.80
2014,07,16,02,44,18.80
2014,07,16,02,45,18.80
2014,07,16,02,46,18.80
2014,07,16,02,47,18.80
2014,07,16,02,48,18.70
2014,07,16,02,49,18.70
2014,07,16,02,50,18.70
2014,07,16,02,51,18.70
2014,07,16,02,52,18.70
2014,07,16,02,53,18.70
2014,07,16,02,54,18.70
2014,07,16,02,55,18.70
2014,07,16,02,56,18.70
2014,07,16,02,57,18.70
2014,07,16,02,58,18.70
2014,07,16,02,59,18.60
2014,07,16,03,00,18.60
2014,07,16,03,01,18.60
2014,07,16,03,02,18.50
2014,07,16,03,03,18.50
2014,07,16,03,04,18.40
2014,07,16,03,05,18.30
2014,07,16,03,06,18.30
2014,07,16,03,07,18.10
2014,07,16,03,08,18.00
2014,07,16,03,09,17.90
2014,07,16,03,10,17.80
2014,07,16,03,11,17.70
2014,07,16,03,12,17.60
2014,07,16,03,13,17.50
2014,07,16,03,14,17.50
2014,07,16,03,15,17.40
2014,07,16,03,16,17.30
2014,07,16,03,17,17.30
2014,07,16,03,18,17.20
2014,07,16,03,19,17.20
2014,07,16,03,20,17.10
2014,07,16,03,21,17.00
2014,07,16,03,22,16.90
2014,07,16,03,23,16.90
2014,07,16,03,24,16.80
2014,07,16,03,25,16.80
2014,07,16,03,26,16.70
2014,07,16,03,27,16.70
2014,07,16,03,28,16.70
2014,07,16,03,29,16.60
2014,07,16,03,30,16.60
2014,07,16,03,31,16.60
2014,07,16,03,32,16.50
2014,07,16,03,33,16.50
2014,07,16,03,34,16.40
2014,07,16,03,35,16.40
2014,07,16,03,36,16.40
2014,07,16,03,37,16.40
2014,07,16,03,38,16.30
2014,07,16,03,39,16.30
2014,07,16,03,40,16.30
2014,07,16,03,41,16.20
2014,07,16,03,42,16.20
2014,07,16,03,43,16.20
2014,07,16,03,44,16.10
2014,07,16,03,45,16.10
2014,07,16,03,46,16.10
2014,07,16,03,47,16.10
2014,07,16,03,48,16.10
2014,07,16,03,49,16.10
2014,07,16,03,50,16.00
2014,07,16,03,51,16.00
2014,07,16,03,52,16.00
2014,07,16,03,53,15.90
2014,07,16,03,54,15.90
2014,07,16,03,55,15.90
2014,07,16,03,56,15.80
2014,07,16,03,57,15.80
2014,07,16,03,58,15.80
2014,07,16,03,59,15.80
2014,07,16,04,00,15.80
2014,07,16,04,01,15.80
2014,07,16,04,02,15.70
2014,07,16,04,03,15.70
2014,07,16,04,04,15.70
2014,07,16,04,05,15.70
2014,07,16,04,06,15.60
2014,07,16,04,07,15.60
2014,07,16,04,08,15.60
2014,07,16,04,09,15.60
2014,07,16,04,10,15.60
2014,07,16,04,11,15.50
2014,07,16,04,12,15.50
2014,07,16,04,13,15.50
2014,07,16,04,14,15.50
2014,07,16,04,15,15.40
2014,07,16,04,16,15.40
2014,07,16,04,17,15.40
2014,07,16,04,18,15.40
2014,07,16,04,19,15.40
2014,07,16,04,20,15.40
2014,07,16,04,21,15.30
2014,07,16,04,22,15.30
2014,07,16,04,23,15.30
2014,07,16,04,24,15.30
2014,07,16,04,25,15.30
2014,07,16,04,26,15.20
2014,07,16,04,27,15.20
2014,07,16,04,28,15.20
2014,07,16,04,29,15.20
2014,07,16,04,30,15.20
2014,07,16,04,31,15.10
2014,07,16,04,32,15.10
2014,07,16,04,33,15.10
2014,07,16,04,34,15.10
2014,07,16,04,35,15.10
2014,07,16,04,36,15.10
2014,07,16,04,37,15.10
2014,07,16,04,38,15.10
2014,07,16,04,39,15.10
2014,07,16,04,40,15.10
2014,07,16,04,41,15.00
2014,07,16,04,42,15.00
2014,07,16,04,43,15.00
2014,07,16,04,44,15.00
2014,07,16,04,45,15.00
2014,07,16,04,46,15.00
2014,07,16,04,47,15.00
2014,07,16,04,48,15.00
2014,07,16,04,49,15.00
2014,07,16,04,50,15.00
2014,07,16,04,51,15.00
2014,07,16,04,52,15.00
2014,07,16,04,53,15.00
2014,07,16,04,54,15.00
2014,07,16,04,55,15.00
2014,07,16,04,56,15.10
2014,07,16,04,57,15.10
2014,07,16,04,58,15.10
2014,07,16,04,59,15.20
2014,07,16,05,00,15.20
2014,07,16,05,01,15.20
2014,07,16,05,02,15.30
2014,07,16,05,03,15.30
2014,07,16,05,04,15.30
2014,07,16,05,05,15.30
2014,07,16,05,06,15.30
2014,07,16,05,07,15.30
2014,07,16,05,08,15.20
2014,07,16,05,09,15.20
2014,07,16,05,10,15.10
2014,07,16,05,11,15.10
2014,07,16,05,12,15.10
2014,07,16,05,13,15.10
2014,07,16,05,14,15.10
2014,07,16,05,15,15.10
2014,07,16,05,16,15.20
2014,07,16,05,17,15.30
2014,07,16,05,18,15.30
2014,07,16,05,19,15.40
2014,07,16,05,20,15.50
2014,07,16,05,21,15.70
2014,07,16,05,22,15.80
2014,07,16,05,23,15.90
2014,07,16,05,24,16.00
2014,07,16,05,25,16.10
2014,07,16,05,26,16.10
2014,07,16,05,27,16.00
2014,07,16,05,28,16.00
2014,07,16,05,29,16.00
2014,07,16,05,30,16.00
2014,07,16,05,31,16.00
2014,07,16,05,32,16.00
2014,07,16,05,33,16.00
2014,07,16,05,34,16.00
2014,07,16,05,35,15.90
2014,07,16,05,36,15.90
2014,07,16,05,37,15.90
2014,07,16,05,38,15.80
2014,07,16,05,39,15.80
2014,07,16,05,40,15.80
2014,07,16,05,41,15.80
2014,07,16,05,42,15.80
2014,07,16,05,43,15.70
2014,07,16,05,44,15.70
2014,07,16,05,45,15.70
2014,07,16,05,46,15.60
2014,07,16,05,47,15.50
2014,07,16,05,48,15.50
2014,07,16,05,49,15.40
2014,07,16,05,50,15.40
2014,07,16,05,51,15.40
2014,07,16,05,52,15.40
2014,07,16,05,53,15.40
2014,07,16,05,54,15.40
2014,07,16,05,55,15.40
2014,07,16,05,56,15.40
2014,07,16,05,57,15.40
2014,07,16,05,58,15.50
2014,07,16,05,59,15.50
2014,07,16,06,00,15.60
2014,07,16,06,01,15.60
2014,07,16,06,02,15.60
2014,07,16,06,03,15.60
2014,07,16,06,04,15.60
2014,07,16,06,05,15.60
2014,07,16,06,06,15.60
2014,07,16,06,07,15.60
2014,07,16,06,08,15.60
2014,07,16,06,09,15.60
2014,07,16,06,10,15.60
2014,07,16,06,11,15.60
2014,07,16,06,12,15.50
2014,07,16,06,13,15.50
2014,07,16,06,14,15.50
2014,07,16,06,15,15.50
2014,07,16,06,16,15.50
2014,07,16,06,17,15.60
2014,07,16,06,18,15.60
2014,07,16,06,19,15.70
2014,07,16,06,20,15.70
2014,07,16,06,21,15.80
2014,07,16,06,22,15.80
2014,07,16,06,23,15.80
2014,07,16,06,24,15.80
2014,07,16,06,25,15.90
2014,07,16,06,26,15.90
2014,07,16,06,27,15.90
2014,07,16,06,28,15.90
2014,07,16,06,29,16.00
2014,07,16,06,30,16.00
2014,07,16,06,31,16.10
2014,07,16,06,32,16.10
2014,07,16,06,33,16.10
2014,07,16,06,34,16.10
2014,07,16,06,35,16.10
2014,07,16,06,36,16.20
2014,07,16,06,37,16.30
2014,07,16,06,38,16.40
2014,07,16,06,39,16.50
2014,07,16,06,40,16.50
2014,07,16,06,41,16.60
2014,07,16,06,42,16.70
2014,07,16,06,43,16.70
2014,07,16,06,44,16.80
2014,07,16,06,45,16.90
2014,07,16,06,46,16.90
2014,07,16,06,47,17.00
2014,07,16,06,48,17.00
2014,07,16,06,49,17.10
2014,07,16,06,50,17.10
2014,07,16,06,51,17.10
2014,07,16,06,52,17.20
2014,07,16,06,53,17.20
2014,07,16,06,54,17.30
2014,07,16,06,55,17.30
2014,07,16,06,56,17.40
2014,07,16,06,57,17.40
2014,07,16,06,58,17.50
2014,07,16,06,59,17.50
2014,07,16,07,00,17.60
2014,07,16,07,01,17.60
2014,07,16,07,02,17.70
2014,07,16,07,03,17.70
2014,07,16,07,04,17.70
2014,07,16,07,05,17.70
2014,07,16,07,06,17.80
2014,07,16,07,07,17.80
2014,07,16,07,08,17.90
2014,07,16,07,09,17.90
2014,07,16,07,10,18.00
2014,07,16,07,11,18.00
2014,07,16,07,12,18.10
2014,07,16,07,13,18.10
2014,07,16,07,14,18.20
2014,07,16,07,15,18.30
2014,07,16,07,16,18.30
2014,07,16,07,17,18.40
2014,07,16,07,18,18.40
2014,07,16,07,19,18.50
2014,07,16,07,20,18.50
2014,07,16,07,21,18.60
2014,07,16,07,22,18.60
2014,07,16,07,23,18.70
2014,07,16,07,24,18.70
2014,07,16,07,25,18.70
2014,07,16,07,26,18.80
2014,07,16,07,27,18.80
2014,07,16,07,28,18.80
2014,07,16,07,29,18.90
2014,07,16,07,30,18.90
2014,07,16,07,31,18.90
2014,07,16,07,32,18.90
2014,07,16,07,33,19.00
2014,07,16,07,34,19.00
2014,07,16,07,35,19.10
2014,07,16,07,36,19.10
2014,07,16,07,37,19.20
2014,07,16,07,38,19.20
2014,07,16,07,39,19.20
2014,07,16,07,40,19.20
2014,07,16,07,41,19.20
2014,07,16,07,42,19.20
2014,07,16,07,43,19.20
2014,07,16,07,44,19.20
2014,07,16,07,45,19.10
2014,07,16,07,46,19.10
2014,07,16,07,47,19.10
2014,07,16,07,48,19.10
2014,07,16,07,49,19.10
2014,07,16,07,50,19.20
2014,07,16,07,51,19.20
2014,07,16,07,52,19.20
2014,07,16,07,53,19.30
2014,07,16,07,54,19.30
2014,07,16,07,55,19.30
2014,07,16,07,56,19.40
2014,07,16,07,57,19.50
2014,07,16,07,58,19.50
2014,07,16,07,59,19.60
2014,07,16,08,00,19.60
2014,07,16,08,01,19.60
2014,07,16,08,02,19.60
2014,07,16,08,03,19.60
2014,07,16,08,04,19.70
2014,07,16,08,05,19.70
2014,07,16,08,06,19.60
2014,07,16,08,07,19.70
2014,07,16,08,08,19.70
2014,07,16,08,09,19.70
2014,07,16,08,10,19.70
2014,07,16,08,11,19.70
2014,07,16,08,12,19.70
2014,07,16,08,13,19.70
2014,07,16,08,14,19.70
2014,07,16,08,15,19.80
2014,07,16,08,16,19.80
2014,07,16,08,17,19.80
2014,07,16,08,18,19.80
2014,07,16,08,19,19.80
2014,07,16,08,20,19.80
2014,07,16,08,21,19.80
2014,07,16,08,22,19.80
2014,07,16,08,23,19.90
2014,07,16,08,24,19.90
2014,07,16,08,25,19.90
2014,07,16,08,26,19.80
2014,07,16,08,27,19.80
2014,07,16,08,28,19.80
2014,07,16,08,29,19.80
2014,07,16,08,30,19.80
2014,07,16,08,31,19.80
2014,07,16,08,32,19.80
2014,07,16,08,33,19.80
2014,07,16,08,34,19.70
2014,07,16,08,35,19.80
2014,07,16,08,36,19.80
2014,07,16,08,37,19.80
2014,07,16,08,38,19.80
2014,07,16,08,39,19.80
2014,07,16,08,40,19.70
2014,07,16,08,41,19.70
2014,07,16,08,42,19.70
2014,07,16,08,43,19.70
2014,07,16,08,44,19.70
2014,07,16,08,45,19.70
2014,07,16,08,46,19.70
2014,07,16,08,47,19.70
2014,07,16,08,48,19.70
2014,07,16,08,49,19.60
2014,07,16,08,50,19.60
2014,07,16,08,51,19.60
2014,07,16,08,52,19.60
2014,07,16,08,53,19.60
2014,07,16,08,54,19.60
2014,07,16,08,55,19.50
2014,07,16,08,56,19.60
2014,07,16,08,57,19.60
2014,07,16,08,58,19.60
2014,07,16,08,59,19.60
2014,07,16,09,00,19.60
2014,07,16,09,01,19.60
2014,07,16,09,02,19.70
2014,07,16,09,03,19.70
2014,07,16,09,04,19.80
2014,07,16,09,05,19.80
2014,07,16,09,06,19.80
2014,07,16,09,07,19.80
2014,07,16,09,08,19.80
2014,07,16,09,09,19.80
2014,07,16,09,10,19.80
2014,07,16,09,11,19.80
2014,07,16,09,12,19.80
2014,07,16,09,13,19.70
2014,07,16,09,14,19.70
2014,07,16,09,15,19.60
2014,07,16,09,16,19.60
2014,07,16,09,17,19.50
2014,07,16,09,18,19.50
2014,07,16,09,19,19.40
2014,07,16,09,20,19.40
2014,07,16,09,21,19.40
2014,07,16,09,22,19.40
2014,07,16,09,23,19.50
2014,07,16,09,24,19.50
2014,07,16,09,25,19.60
2014,07,16,09,26,19.60
2014,07,16,09,27,19.60
2014,07,16,09,28,19.70
2014,07,16,09,29,19.70
2014,07,16,09,30,19.80
2014,07,16,09,31,19.80
2014,07,16,09,32,19.70
2014,07,16,09,33,19.70
2014,07,16,09,34,19.50
2014,07,16,09,35,19.50
2014,07,16,09,36,19.40
2014,07,16,09,37,19.30
2014,07,16,09,38,19.30
2014,07,16,09,39,19.20
2014,07,16,09,40,19.10
2014,07,16,09,41,19.10
2014,07,16,09,42,19.10
2014,07,16,09,43,19.10
2014,07,16,09,44,19.20
2014,07,16,09,45,19.20
2014,07,16,09,46,19.20
2014,07,16,09,47,19.20
2014,07,16,09,48,19.10
2014,07,16,09,49,19.10
2014,07,16,09,50,19.10
2014,07,16,09,51,19.10
2014,07,16,09,52,19.00
2014,07,16,09,53,18.90
2014,07,16,09,54,18.90
2014,07,16,09,55,18.80
2014,07,16,09,56,18.70
2014,07,16,09,57,18.70
2014,07,16,09,58,18.70
2014,07,16,09,59,18.80
2014,07,16,10,00,18.90
2014,07,16,10,01,19.00
2014,07,16,10,02,19.10
2014,07,16,10,03,19.20
2014,07,16,10,04,19.30
2014,07,16,10,05,19.40
2014,07,16,10,06,19.40
2014,07,16,10,07,19.40
2014,07,16,10,08,19.30
2014,07,16,10,09,19.30
2014,07,16,10,10,19.30
2014,07,16,10,11,19.40
2014,07,16,10,12,19.40
2014,07,16,10,13,19.40
2014,07,16,10,14,19.30
2014,07,16,10,15,19.30
2014,07,16,10,16,19.40
2014,07,16,10,17,19.30
2014,07,16,10,18,19.30
2014,07,16,10,19,19.20
2014,07,16,10,20,19.20
2014,07,16,10,21,19.20
2014,07,16,10,22,19.20
2014,07,16,10,23,19.20
2014,07,16,10,24,19.20
2014,07,16,10,25,19.30
2014,07,16,10,26,19.30
2014,07,16,10,27,19.30
2014,07,16,10,28,19.30
2014,07,16,10,29,19.30
2014,07,16,10,30,19.30
2014,07,16,10,31,19.40
2014,07,16,10,32,19.40
2014,07,16,10,33,19.40
2014,07,16,10,34,19.30
2014,07,16,10,35,19.30
2014,07,16,10,36,19.30
2014,07,16,10,37,19.30
2014,07,16,10,38,19.30
2014,07,16,10,39,19.20
2014,07,16,10,40,19.10
2014,07,16,10,41,19.10
2014,07,16,10,42,19.10
2014,07,16,10,43,19.00
2014,07,16,10,44,19.00
2014,07,16,10,45,18.90
2014,07,16,10,46,18.90
2014,07,16,10,47,18.90
2014,07,16,10,48,18.90
2014,07,16,10,49,18.90
2014,07,16,10,50,19.00
2014,07,16,10,51,19.10
2014,07,16,10,52,19.10
2014,07,16,10,53,19.20
2014,07,16,10,54,19.20
2014,07,16,10,55,19.30
2014,07,16,10,56,19.30
2014,07,16,10,57,19.40
2014,07,16,10,58,19.40
2014,07,16,10,59,19.30
2014,07,16,11,00,19.30
2014,07,16,11,01,19.30
2014,07,16,11,02,19.30
2014,07,16,11,03,19.30
2014,07,16,11,04,19.30
2014,07,16,11,05,19.30
2014,07,16,11,06,19.30
2014,07,16,11,07,19.30
2014,07,16,11,08,19.20
2014,07,16,11,09,19.20
2014,07,16,11,10,19.20
2014,07,16,11,11,19.10
2014,07,16,11,12,19.10
2014,07,16,11,13,19.10
2014,07,16,11,14,19.10
2014,07,16,11,15,19.00
2014,07,16,11,16,18.90
2014,07,16,11,17,18.90
2014,07,16,11,18,18.90
2014,07,16,11,19,19.00
2014,07,16,11,20,19.00
2014,07,16,11,21,19.00
2014,07,16,11,22,19.00
2014,07,16,11,23,19.10
2014,07,16,11,24,19.10
2014,07,16,11,25,19.10
2014,07,16,11,26,19.10
2014,07,16,11,27,19.20
2014,07,16,11,28,19.20
2014,07,16,11,29,19.20
2014,07,16,11,30,19.10
2014,07,16,11,31,19.10
2014,07,16,11,32,19.10
2014,07,16,11,33,19.20
2014,07,16,11,34,19.30
2014,07,16,11,35,19.30
2014,07,16,11,36,19.40
2014,07,16,11,37,19.40
2014,07,16,11,38,19.50
2014,07,16,11,39,19.50
2014,07,16,11,40,19.60
2014,07,16,11,41,19.60
2014,07,16,11,42,19.60
2014,07,16,11,43,19.70
2014,07,16,11,44,19.80
2014,07,16,11,45,19.80
2014,07,16,11,46,19.80
2014,07,16,11,47,19.80
2014,07,16,11,48,19.80
2014,07,16,11,49,19.70
2014,07,16,11,50,19.70
2014,07,16,11,51,19.70
2014,07,16,11,52,19.70
2014,07,16,11,53,19.70
2014,07,16,11,54,19.80
2014,07,16,11,55,19.80
2014,07,16,11,56,19.80
2014,07,16,11,57,19.70
2014,07,16,11,58,19.60
2014,07,16,11,59,19.50
2014,07,16,12,00,19.50
2014,07,16,12,01,19.40
2014,07,16,12,02,19.40
2014,07,16,12,03,19.30
2014,07,16,12,04,19.30
2014,07,16,12,05,19.30
2014,07,16,12,06,19.30
2014,07,16,12,07,19.40
2014,07,16,12,08,19.50
2014,07,16,12,09,19.50
2014,07,16,12,10,19.60
2014,07,16,12,11,19.70
2014,07,16,12,12,19.80
2014,07,16,12,13,19.80
2014,07,16,12,14,19.90
2014,07,16,12,15,20.00
2014,07,16,12,16,20.10
2014,07,16,12,17,20.10
2014,07,16,12,18,20.00
2014,07,16,12,19,20.00
2014,07,16,12,20,20.10
2014,07,16,12,21,20.10
2014,07,16,12,22,20.10
2014,07,16,12,23,20.10
2014,07,16,12,24,20.10
2014,07,16,12,25,20.10
2014,07,16,12,26,20.20
2014,07,16,12,27,20.20
2014,07,16,12,28,20.20
2014,07,16,12,29,20.20
2014,07,16,12,30,20.20
2014,07,16,12,31,20.20
2014,07,16,12,32,20.20
2014,07,16,12,33,20.10
2014,07,16,12,34,20.00
2014,07,16,12,35,19.90
2014,07,16,12,36,19.80
2014,07,16,12,37,19.80
2014,07,16,12,38,19.80
2014,07,16,12,39,19.90
2014,07,16,12,40,19.90
2014,07,16,12,41,20.00
2014,07,16,12,42,20.20
2014,07,16,12,43,20.30
2014,07,16,12,44,20.40
2014,07,16,12,45,20.50
2014,07,16,12,46,20.60
2014,07,16,12,47,20.70
2014,07,16,12,48,20.80
2014,07,16,12,49,20.80
2014,07,16,12,50,20.90
2014,07,16,12,51,21.10
2014,07,16,12,52,21.20
2014,07,16,12,53,21.30
2014,07,16,12,54,21.30
2014,07,16,12,55,21.40
2014,07,16,12,56,21.40
2014,07,16,12,57,21.40
2014,07,16,12,58,21.40
2014,07,16,12,59,21.30
2014,07,16,13,00,21.30
2014,07,16,13,01,21.20
2014,07,16,13,02,21.20
2014,07,16,13,03,21.10
2014,07,16,13,04,21.00
2014,07,16,13,05,21.00
2014,07,16,13,06,21.00
2014,07,16,13,07,21.10
2014,07,16,13,08,21.10
2014,07,16,13,09,21.20
2014,07,16,13,10,21.20
2014,07,16,13,11,21.30
2014,07,16,13,12,21.30
2014,07,16,13,13,21.30
2014,07,16,13,14,21.30
2014,07,16,13,15,21.30
2014,07,16,13,16,21.30
2014,07,16,13,17,21.30
2014,07,16,13,18,21.30
2014,07,16,13,19,21.50
2014,07,16,13,20,21.60
2014,07,16,13,21,21.60
2014,07,16,13,22,21.50
2014,07,16,13,23,21.40
2014,07,16,13,24,21.40
2014,07,16,13,25,21.40
2014,07,16,13,26,21.40
2014,07,16,13,27,21.50
2014,07,16,13,28,21.60
2014,07,16,13,29,21.70
2014,07,16,13,30,21.70
2014,07,16,13,31,21.80
2014,07,16,13,32,21.90
2014,07,16,13,33,22.00
2014,07,16,13,34,22.10
2014,07,16,13,35,22.10
2014,07,16,13,36,22.20
2014,07,16,13,37,22.20
2014,07,16,13,38,22.20
2014,07,16,13,39,22.20
2014,07,16,13,40,22.30
2014,07,16,13,41,22.30
2014,07,16,13,42,22.40
2014,07,16,13,43,22.40
2014,07,16,13,44,22.40
2014,07,16,13,45,22.40
2014,07,16,13,46,22.40
2014,07,16,13,47,22.50
2014,07,16,13,48,22.60
2014,07,16,13,49,22.60
2014,07,16,13,50,22.70
2014,07,16,13,51,22.70
2014,07,16,13,52,22.80
2014,07,16,13,53,22.80
2014,07,16,13,54,22.80
2014,07,16,13,55,22.80
2014,07,16,13,56,22.70
2014,07,16,13,57,22.70
2014,07,16,13,58,22.60
2014,07,16,13,59,22.50
2014,07,16,14,00,22.40
2014,07,16,14,01,22.40
2014,07,16,14,02,22.40
2014,07,16,14,03,22.40
2014,07,16,14,04,22.40
2014,07,16,14,05,22.40
2014,07,16,14,06,22.50
2014,07,16,14,07,22.50
2014,07,16,14,08,22.50
2014,07,16,14,09,22.50
2014,07,16,14,10,22.40
2014,07,16,14,11,22.50
2014,07,16,14,12,22.50
2014,07,16,14,13,22.60
2014,07,16,14,14,22.60
2014,07,16,14,15,22.80
2014,07,16,14,16,22.90
2014,07,16,14,17,23.00
2014,07,16,14,18,23.10
2014,07,16,14,19,23.20
2014,07,16,14,20,23.30
2014,07,16,14,21,23.30
2014,07,16,14,22,23.30
2014,07,16,14,23,23.30
2014,07,16,14,24,23.20
2014,07,16,14,25,23.20
2014,07,16,14,26,23.10
2014,07,16,14,27,23.00
2014,07,16,14,28,22.90
2014,07,16,14,29,22.80
2014,07,16,14,30,22.80
2014,07,16,14,31,22.70
2014,07,16,14,32,22.60
2014,07,16,14,33,22.50
2014,07,16,14,34,22.50
2014,07,16,14,35,22.50
2014,07,16,14,36,22.50
2014,07,16,14,37,22.50
2014,07,16,14,38,22.50
2014,07,16,14,39,22.50
2014,07,16,14,40,22.60
2014,07,16,14,41,22.50
2014,07,16,14,42,22.50
2014,07,16,14,43,22.50
2014,07,16,14,44,22.60
2014,07,16,14,45,22.50
2014,07,16,14,46,22.60
2014,07,16,14,47,22.60
2014,07,16,14,48,22.60
2014,07,16,14,49,22.60
2014,07,16,14,50,22.70
2014,07,16,14,51,22.70
2014,07,16,14,52,22.70
2014,07,16,14,53,22.70
2014,07,16,14,54,22.70
2014,07,16,14,55,22.80
2014,07,16,14,56,22.90
2014,07,16,14,57,23.00
2014,07,16,14,58,23.10
2014,07,16,14,59,23.20
2014,07,16,15,00,23.40
2014,07,16,15,01,23.50
2014,07,16,15,02,23.70
2014,07,16,15,03,23.80
2014,07,16,15,04,23.90
2014,07,16,15,05,24.00
2014,07,16,15,06,24.10
2014,07,16,15,07,24.10
2014,07,16,15,08,24.20
2014,07,16,15,09,24.30
2014,07,16,15,10,24.40
2014,07,16,15,11,24.50
2014,07,16,15,12,24.60
2014,07,16,15,13,24.60
2014,07,16,15,14,24.70
2014,07,16,15,15,24.70
2014,07,16,15,16,24.70
2014,07,16,15,17,24.70
2014,07,16,15,18,24.70
2014,07,16,15,19,24.80
2014,07,16,15,20,24.80
2014,07,16,15,21,24.90
2014,07,16,15,22,24.90
2014,07,16,15,23,25.00
2014,07,16,15,24,25.10
2014,07,16,15,25,25.10
2014,07,16,15,26,25.10
2014,07,16,15,27,25.10
2014,07,16,15,28,25.20
2014,07,16,15,29,25.20
2014,07,16,15,30,25.30
2014,07,16,15,31,25.30
2014,07,16,15,32,25.30
2014,07,16,15,33,25.20
2014,07,16,15,34,25.30
2014,07,16,15,35,25.30
2014,07,16,15,36,25.30
2014,07,16,15,37,25.40
2014,07,16,15,38,25.40
2014,07,16,15,39,25.30
2014,07,16,15,40,25.30
2014,07,16,15,41,25.30
2014,07,16,15,42,25.20
2014,07,16,15,43,25.20
2014,07,16,15,44,25.20
2014,07,16,15,45,25.10
2014,07,16,15,46,25.10
2014,07,16,15,47,25.00
2014,07,16,15,48,25.00
2014,07,16,15,49,25.00
2014,07,16,15,50,25.00
2014,07,16,15,51,25.00
2014,07,16,15,52,25.00
2014,07,16,15,53,25.10
2014,07,16,15,54,25.20
2014,07,16,15,55,25.30
2014,07,16,15,56,25.40
2014,07,16,15,57,25.50
2014,07,16,15,58,25.60
2014,07,16,15,59,25.60
2014,07,16,16,00,25.60
2014,07,16,16,01,25.60
2014,07,16,16,02,25.70
2014,07,16,16,03,25.80
2014,07,16,16,04,25.80
2014,07,16,16,05,25.80
2014,07,16,16,06,25.80
2014,07,16,16,07,25.90
2014,07,16,16,08,25.90
2014,07,16,16,09,26.00
2014,07,16,16,10,26.10
2014,07,16,16,11,26.30
2014,07,16,16,12,26.40
2014,07,16,16,13,26.60
2014,07,16,16,14,26.70
2014,07,16,16,15,26.80
2014,07,16,16,16,26.90
2014,07,16,16,17,27.10
2014,07,16,16,18,27.10
2014,07,16,16,19,27.20
2014,07,16,16,20,27.20
2014,07,16,16,21,27.10
2014,07,16,16,22,27.10
2014,07,16,16,23,27.10
2014,07,16,16,24,27.20
2014,07,16,16,25,27.20
2014,07,16,16,26,27.30
2014,07,16,16,27,27.30
2014,07,16,16,28,27.30
2014,07,16,16,29,27.30
2014,07,16,16,30,27.30
2014,07,16,16,31,27.30
2014,07,16,16,32,27.30
2014,07,16,16,33,27.30
2014,07,16,16,34,27.30
2014,07,16,16,35,27.30
2014,07,16,16,36,27.30
2014,07,16,16,37,27.30
2014,07,16,16,38,27.30
2014,07,16,16,39,27.30
2014,07,16,16,40,27.30
2014,07,16,16,41,27.30
2014,07,16,16,42,27.30
2014,07,16,16,43,27.30
2014,07,16,16,44,27.40
2014,07,16,16,45,27.30
2014,07,16,16,46,27.30
2014,07,16,16,47,27.40
2014,07,16,16,48,27.40
2014,07,16,16,49,27.30
2014,07,16,16,50,27.30
2014,07,16,16,51,27.30
2014,07,16,16,52,27.30
2014,07,16,16,53,27.30
2014,07,16,16,54,27.30
2014,07,16,16,55,27.30
2014,07,16,16,56,27.30
2014,07,16,16,57,27.30
2014,07,16,16,58,27.30
2014,07,16,16,59,27.30
2014,07,16,17,00,27.30
2014,07,16,17,01,27.40
2014,07,16,17,02,27.30
2014,07,16,17,03,27.20
2014,07,16,17,04,27.10
2014,07,16,17,05,26.90
2014,07,16,17,06,26.80
2014,07,16,17,07,26.70
2014,07,16,17,08,26.70
2014,07,16,17,09,26.80
2014,07,16,17,10,26.80
2014,07,16,17,11,26.80
2014,07,16,17,12,26.80
2014,07,16,17,13,26.90
2014,07,16,17,14,27.00
2014,07,16,17,15,27.10
2014,07,16,17,16,27.20
2014,07,16,17,17,27.30
2014,07,16,17,18,27.30
2014,07,16,17,19,27.30